Home   Weather   Guilin   Past weeks

Flag for China Past Weather in Guilin, Guangxi, China — Yesterday and Last 2 Weeks

Now
79 °F

Partly sunny.


Feels Like: 80 °F
Forecast: 66 / 80 °F
Wind: 6 mph from Southeast

Location: Guilin Airport

Current Time: Apr 29, 2017 at 7:34:43 pm

Latest Report: Apr 29, 2017 at 7:00 pm


Visibility: N/A

Pressure: 29.86 "Hg

Humidity: 54%

Dew Point: 61 °F

Location of GuilinLocation

Past Weather in Guilin — Graph

°F

Guilin Temperature Yesterday

Maximum temperature yesterday: 81 °F (at 4:00 pm)
Minimum temperature yesterday: 55 °F (at 6:00 am)
Average temperature yesterday: 67 °F

High & Low Weather Summary for the Past Weeks

 TemperatureHumidityPressure
High82 °F (Apr 20, 2:00 pm)100% (Apr 15, 3:00 am)30.12 "Hg (Apr 15, 3:00 am)
Low52 °F (Apr 23, 6:00 am)21% (Apr 22, 4:00 pm)29.65 "Hg (Apr 19, 4:00 pm)
Average69 °F82%29.91 "Hg
* Reported Apr 14 6:00 pm — Apr 29 6:00 pm, Guilin, Weather by CustomWeather, © 2017

Note: Actual official high and low records may vary slightly from our data, if they occured in-between our weather recording intervals... More about our weather records

Advertising

Guilin Weather History for the Previous 24 Hours

Scroll right to see more
 ConditionsComfort  
Time TempWeatherWind HumidityBarometerVisibility
6:00 pm
Sat, Apr 29
81 °FSunny.6 mph48%29.86 "Hg10 mi
5:00 pm82 °FPassing clouds.8 mph40%29.86 "HgN/A
4:00 pm82 °FPassing clouds.6 mph42%29.86 "HgN/A
3:00 pm82 °FSunny.8 mph42%29.89 "Hg10 mi
2:00 pm81 °FSunny.8 mph42%29.92 "Hg10 mi
1:00 pm81 °FSunny.3 mph42%29.95 "Hg10 mi
12:00 pm77 °FPartly sunny.6 mph47%29.98 "HgN/A
11:00 am75 °FPassing clouds.3 mph50%30.01 "HgN/A
10:00 am70 °FSunny.1 mph60%30.04 "Hg10 mi
9:00 am66 °FClear.1 mph73%30.04 "Hg5 mi
8:00 am61 °FClear.1 mph88%30.01 "Hg5 mi
7:00 am57 °FClear.1 mph100%30.01 "Hg5 mi
6:00 am55 °FClear.1 mph94%29.98 "Hg5 mi
5:00 am57 °FClear.No wind94%29.98 "Hg4 mi
4:00 am57 °FClear.1 mph94%29.98 "Hg4 mi
3:00 am57 °FClear.No wind94%29.98 "Hg4 mi
2:00 am59 °FClear.1 mph88%29.98 "Hg10 mi
1:00 am59 °FClear.3 mph88%29.98 "Hg10 mi
12:00 am61 °FClear.1 mph83%30.01 "Hg10 mi
11:00 pm
Fri, Apr 28
63 °FClear.3 mph83%30.01 "Hg10 mi
10:00 pm63 °FPassing clouds.3 mph83%29.98 "HgN/A
9:00 pm64 °FPassing clouds.1 mph78%29.98 "HgN/A
8:00 pm68 °FPassing clouds.3 mph64%29.95 "HgN/A
7:00 pm75 °FPassing clouds.3 mph50%29.95 "HgN/A
Weather by CustomWeather, © 2017

See weather overviewHow to use our weather pages